Weather History for Evansville, IN

Change the Weather History Date:

Wednesday, August 28, 2013

  Actual Average Record
Temperature  
Mean Temperature 83 °F 75 °F  
Max Temperature 94 °F 87 °F 102 °F (1936)
Min Temperature 71 °F 64 °F 48 °F (1986)
Degree Days  
Heating Degree Days 0 0  
Month to date heating degree days 0 0  
Since 1 June heating degree days 1 6  
Since 1 July heating degree days 0 0  
Cooling Degree Days 18 10  
Month to date cooling degree days 319 331  
Year to date cooling degree days 1137 1167  
Since 1 June cooling degree days 966 1032  
Growing Degree Days 32 (Base 50)    
Moisture  
Dew Point 69 °F    
Average Humidity 66    
Maximum Humidity 93    
Minimum Humidity 39    
Precipitation  
Precipitation 0.00 in 0.10 in 2.50 in (1981)
Month to date precipitation 1.36 2.70  
Year to date precipitation 35.05 30.64  
Snow  
Snow 0.00 in 0.00 in 0.00 in (2002)
Month to date snowfall 0.0 0.0  
Since 1 June snowfall 0.0 0.0  
Since 1 July snowfall 0.0 0.0  
Snow Depth 0.00 in    
Sea Level Pressure  
Sea Level Pressure 30.00 in    
Wind  
Wind Speed 7 mph (West)    
Max Wind Speed 16 mph    
Max Gust Speed 21 mph    
Visibility 10 miles    
Events      
T = Trace of Precipitation, MM = Missing Value Source: NWS Daily Summary

Daily Weather History Graph

Daily Weather History Graph

Search for Another Location

Airport:

Trip Planner

Search our weather history database for the weather conditions in past years. The results will help you decide how hot, cold, wet, or windy it might be!

Date:

Astronomy

Aug. 28, 2013 Rise Set
Actual Time 6:16 AM CDT 7:25 PM CDT
Civil Twilight 5:49 AM CDT 7:52 PM CDT
Nautical Twilight 5:17 AM CDT 8:24 PM CDT
Astronomical Twilight 4:43 AM CDT 8:58 PM CDT
Moon No Moon Rise 1:59 PM CDT (8/28)
Length of Visible Light 14h 02m
Length of Day
13h 08m
Waning Gibbous, 47% of the Moon is Illuminated
Aug 28
Waning Gibbous
Sep 5
New
Sep 12
First Quarter
Sep 19
Full
Sep 26
Last Quarter

Hourly Weather History & Observations

Time (CDT) Temp. Heat Index Dew Point Humidity Pressure Visibility Wind Dir Wind Speed Gust Speed Precip Events Conditions
12:54 AM 75.9 °F - 72.0 °F 87% 30.01 in 9.0 mi SW 4.6 mph - N/A   Clear
1:54 AM 75.0 °F - 71.1 °F 87% 30.00 in 9.0 mi SW 4.6 mph - N/A   Clear
2:54 AM 75.9 °F - 71.1 °F 85% 30.00 in 10.0 mi WSW 5.8 mph - N/A   Clear
3:54 AM 75.9 °F - 70.0 °F 82% 30.00 in 10.0 mi West 6.9 mph - N/A   Clear
4:54 AM 73.9 °F - 69.1 °F 85% 30.01 in 10.0 mi Calm Calm - N/A   Clear
5:54 AM 72.0 °F - 69.1 °F 91% 30.03 in 9.0 mi SW 4.6 mph - N/A   Clear
6:54 AM 72.0 °F - 69.1 °F 91% 30.03 in 8.0 mi Calm Calm - N/A   Clear
7:54 AM 78.1 °F - 70.0 °F 76% 30.03 in 10.0 mi West 6.9 mph - N/A   Clear
8:54 AM 82.0 °F 85.9 °F 70.0 °F 67% 30.02 in 10.0 mi West 6.9 mph - N/A   Clear
9:54 AM 84.9 °F 89.4 °F 70.0 °F 61% 30.02 in 10.0 mi West 9.2 mph - N/A   Clear
10:54 AM 89.1 °F 94.1 °F 70.0 °F 53% 30.02 in 10.0 mi WNW 6.9 mph - N/A   Clear
11:54 AM 90.0 °F 93.6 °F 68.0 °F 48% 30.01 in 10.0 mi West 8.1 mph - N/A   Clear
12:54 PM 91.9 °F 95.9 °F 68.0 °F 45% 30.00 in 10.0 mi West 8.1 mph - N/A   Clear
1:54 PM 93.0 °F 95.0 °F 64.9 °F 39% 30.00 in 10.0 mi West 13.8 mph 18.4 mph N/A   Clear
2:54 PM 93.0 °F 95.9 °F 66.0 °F 41% 29.98 in 10.0 mi West 11.5 mph - N/A   Clear
3:54 PM 91.9 °F 94.1 °F 64.9 °F 41% 29.97 in 10.0 mi West 16.1 mph - N/A   Clear
4:54 PM 91.9 °F 94.5 °F 66.0 °F 42% 29.97 in 10.0 mi WSW 11.5 mph - N/A   Clear
5:54 PM 91.0 °F 93.8 °F 66.0 °F 44% 29.98 in 10.0 mi WNW 10.4 mph - N/A   Clear
6:54 PM 86.0 °F 89.4 °F 68.0 °F 55% 29.98 in 10.0 mi WSW 6.9 mph - N/A   Clear
7:54 PM 82.9 °F 86.5 °F 69.1 °F 63% 29.98 in 10.0 mi WSW 9.2 mph - N/A   Clear
8:54 PM 82.0 °F 84.9 °F 68.0 °F 62% 29.98 in 10.0 mi WSW 9.2 mph - N/A   Clear
9:54 PM 82.0 °F 84.5 °F 66.9 °F 60% 29.98 in 10.0 mi West 5.8 mph - N/A   Clear
10:54 PM 79.0 °F - 68.0 °F 69% 29.99 in 10.0 mi West 3.5 mph - N/A   Clear
11:54 PM 77.0 °F - 68.0 °F 74% 29.99 in 10.0 mi Calm Calm - N/A   Clear